Time,TemperatureF,DewpointF,PressureIn,WindDirection,WindDirectionDegrees,WindSpeedMPH,WindSpeedGustMPH,Humidity,HourlyPrecipIn,Conditions,Clouds,dailyrainin,SoftwareType,DateUTC
2013-05-07 00:01:00,51.6,45.7,30.13,SSE,149,0.0,0.0,80,0.00,,CLR,0.00,VWS V13.00,2013-05-07 04:01:00,
2013-05-07 00:02:00,51.4,45.5,30.13,SSE,149,0.0,0.0,80,0.00,,CLR,0.00,VWS V13.00,2013-05-07 04:02:00,
2013-05-07 00:07:00,51.1,45.1,30.13,SSE,149,0.0,0.0,80,0.00,,CLR,0.00,VWS V13.00,2013-05-07 04:07:00,
2013-05-07 00:12:00,51.1,45.1,30.13,SSE,149,0.0,0.0,80,0.00,,CLR,0.00,VWS V13.00,2013-05-07 04:12:00,
2013-05-07 00:17:00,50.9,45.0,30.13,SSE,149,0.0,0.0,80,0.00,,CLR,0.00,VWS V13.00,2013-05-07 04:17:00,
2013-05-07 00:22:00,50.5,44.6,30.13,SSE,149,0.0,0.0,80,0.00,,CLR,0.00,VWS V13.00,2013-05-07 04:22:00,
2013-05-07 00:27:00,50.4,44.4,30.13,SSE,149,0.0,0.0,80,0.00,,CLR,0.00,VWS V13.00,2013-05-07 04:27:00,
2013-05-07 00:32:00,50.2,44.3,30.13,SSE,149,0.0,0.0,80,0.00,,CLR,0.00,VWS V13.00,2013-05-07 04:32:00,
2013-05-07 00:37:00,50.4,44.8,30.13,SSE,149,0.0,0.0,81,0.00,,-RA,0.00,VWS V13.00,2013-05-07 04:37:00,
2013-05-07 00:42:00,50.5,45.3,30.13,SSE,149,0.0,0.0,82,0.00,,-RA,0.00,VWS V13.00,2013-05-07 04:42:00,
2013-05-07 00:47:00,50.2,44.9,30.13,SSE,149,0.0,0.0,82,0.00,,-RA,0.00,VWS V13.00,2013-05-07 04:47:00,
2013-05-07 00:52:00,49.6,44.4,30.13,SSE,149,0.0,0.0,82,0.00,,-RA,0.00,VWS V13.00,2013-05-07 04:52:00,
2013-05-07 00:57:00,49.6,44.4,30.13,SSE,149,0.0,0.0,82,0.00,,-RA,0.00,VWS V13.00,2013-05-07 04:57:00,
2013-05-07 01:03:00,49.5,44.2,30.13,SSE,149,0.0,0.0,82,0.00,,-RA,0.00,VWS V13.00,2013-05-07 05:03:00,
2013-05-07 01:08:00,49.5,44.2,30.13,SSE,149,0.0,0.0,82,0.00,,-RA,0.00,VWS V13.00,2013-05-07 05:08:00,
2013-05-07 01:13:00,49.5,44.5,30.13,SSE,149,0.0,0.0,83,0.00,,-RA,0.00,VWS V13.00,2013-05-07 05:13:00,
2013-05-07 01:18:00,49.5,44.5,30.10,SSE,149,0.0,0.0,83,0.00,,-RA,0.00,VWS V13.00,2013-05-07 05:18:00,
2013-05-07 01:23:00,49.1,44.2,30.10,SSE,149,0.0,0.0,83,0.00,,-RA,0.00,VWS V13.00,2013-05-07 05:23:00,
2013-05-07 01:28:00,48.9,44.0,30.10,SSE,149,0.0,0.0,83,0.00,,-RA,0.00,VWS V13.00,2013-05-07 05:28:00,
2013-05-07 01:33:00,49.1,44.5,30.10,SSE,149,0.0,0.0,84,0.00,,-RA,0.00,VWS V13.00,2013-05-07 05:33:00,
2013-05-07 01:38:00,49.3,44.7,30.10,SSE,149,0.0,0.0,84,0.00,,CLR,0.00,VWS V13.00,2013-05-07 05:38:00,
2013-05-07 01:43:00,49.3,44.7,30.10,SSE,149,0.0,0.0,84,0.00,,CLR,0.00,VWS V13.00,2013-05-07 05:43:00,
2013-05-07 01:48:00,49.5,45.2,30.10,SSE,149,3.1,3.1,85,0.00,,CLR,0.00,VWS V13.00,2013-05-07 05:48:00,
2013-05-07 01:53:00,49.8,45.5,30.10,SSE,149,2.7,3.1,85,0.00,,CLR,0.00,VWS V13.00,2013-05-07 05:53:00,
2013-05-07 01:58:00,49.6,45.3,30.10,SE,142,0.0,3.1,85,0.00,,CLR,0.00,VWS V13.00,2013-05-07 05:58:00,
2013-05-07 02:03:00,49.8,45.5,30.10,SE,142,0.0,0.0,85,0.00,,CLR,0.00,VWS V13.00,2013-05-07 06:03:00,
2013-05-07 02:08:00,50.0,45.7,30.10,ESE,116,2.7,2.7,85,0.00,,CLR,0.00,VWS V13.00,2013-05-07 06:08:00,
2013-05-07 02:13:00,50.2,45.8,30.10,ESE,114,3.6,3.6,85,0.00,,CLR,0.00,VWS V13.00,2013-05-07 06:13:00,
2013-05-07 02:18:00,50.0,45.7,30.10,ESE,114,0.0,3.6,85,0.00,,CLR,0.00,VWS V13.00,2013-05-07 06:18:00,
2013-05-07 02:24:00,49.8,45.8,30.10,ESE,114,0.0,0.0,86,0.00,,CLR,0.00,VWS V13.00,2013-05-07 06:24:00,
2013-05-07 02:29:00,49.8,45.8,30.10,ESE,114,0.0,2.7,86,0.00,,CLR,0.00,VWS V13.00,2013-05-07 06:29:00,
2013-05-07 02:34:00,49.8,45.8,30.10,ESE,114,0.0,2.7,86,0.00,,CLR,0.00,VWS V13.00,2013-05-07 06:34:00,
2013-05-07 02:39:00,49.6,45.6,30.10,ESE,114,0.0,2.7,86,0.00,,CLR,0.00,VWS V13.00,2013-05-07 06:39:00,
2013-05-07 02:44:00,49.3,45.0,30.10,ESE,114,0.0,0.0,85,0.00,,CLR,0.00,VWS V13.00,2013-05-07 06:44:00,
2013-05-07 02:49:00,49.1,44.8,30.10,ESE,114,0.0,0.0,85,0.00,,CLR,0.00,VWS V13.00,2013-05-07 06:49:00,
2013-05-07 02:54:00,48.4,44.1,30.10,ESE,114,0.0,0.0,85,0.00,,CLR,0.00,VWS V13.00,2013-05-07 06:54:00,
2013-05-07 02:59:00,48.4,44.1,30.10,ESE,114,0.0,0.0,85,0.00,,CLR,0.00,VWS V13.00,2013-05-07 06:59:00,
2013-05-07 03:04:00,48.2,43.6,30.10,ESE,114,0.0,0.0,84,0.00,,CLR,0.00,VWS V13.00,2013-05-07 07:04:00,
2013-05-07 03:09:00,48.2,43.6,30.10,ESE,114,0.0,0.0,84,0.00,,CLR,0.00,VWS V13.00,2013-05-07 07:09:00,
2013-05-07 03:14:00,47.8,43.6,30.10,ESE,114,0.0,0.0,85,0.00,,CLR,0.00,VWS V13.00,2013-05-07 07:14:00,
2013-05-07 03:19:00,47.8,43.6,30.10,ESE,114,0.0,0.0,85,0.00,,CLR,0.00,VWS V13.00,2013-05-07 07:19:00,
2013-05-07 03:24:00,47.5,43.2,30.10,ESE,114,0.0,0.0,85,0.00,,CLR,0.00,VWS V13.00,2013-05-07 07:24:00,
2013-05-07 03:29:00,47.1,42.5,30.10,ESE,114,0.0,0.0,84,0.00,,CLR,0.00,VWS V13.00,2013-05-07 07:29:00,
2013-05-07 03:34:00,46.8,42.2,30.10,ESE,114,0.0,0.0,84,0.00,,CLR,0.00,VWS V13.00,2013-05-07 07:34:00,
2013-05-07 03:39:00,46.8,42.2,30.10,ESE,114,0.0,0.0,84,0.00,,FEW003,0.00,VWS V13.00,2013-05-07 07:39:00,
2013-05-07 03:44:00,47.5,43.2,30.10,ESE,114,0.0,0.0,85,0.00,,FEW003,0.00,VWS V13.00,2013-05-07 07:44:00,
2013-05-07 03:49:00,47.5,43.2,30.10,ESE,114,0.0,0.0,85,0.00,,FEW003,0.00,VWS V13.00,2013-05-07 07:49:00,
2013-05-07 03:55:00,47.8,43.9,30.10,ESE,114,0.0,0.0,86,0.00,,FEW003,0.00,VWS V13.00,2013-05-07 07:55:00,
2013-05-07 04:00:00,48.0,44.0,30.10,ESE,114,0.0,0.0,86,0.00,,,0.00,VWS V13.00,2013-05-07 08:00:00,
2013-05-07 04:05:00,48.0,44.3,30.10,ESE,114,0.0,0.0,87,0.00,,,0.00,VWS V13.00,2013-05-07 08:05:00,
2013-05-07 04:10:00,47.8,44.2,30.10,ESE,114,0.0,0.0,87,0.00,,CLR,0.00,VWS V13.00,2013-05-07 08:10:00,
2013-05-07 04:15:00,48.2,44.5,30.10,ESE,114,0.0,0.0,87,0.00,,,0.00,VWS V13.00,2013-05-07 08:15:00,
2013-05-07 04:20:00,48.4,44.7,30.10,ESE,114,0.0,0.0,87,0.00,,,0.00,VWS V13.00,2013-05-07 08:20:00,
2013-05-07 04:25:00,48.2,44.8,30.10,ESE,114,0.0,0.0,88,0.00,,,0.00,VWS V13.00,2013-05-07 08:25:00,
2013-05-07 04:30:00,48.2,44.8,30.10,ESE,114,0.0,0.0,88,0.00,,,0.00,VWS V13.00,2013-05-07 08:30:00,
2013-05-07 04:35:00,48.2,44.8,30.07,ESE,114,0.0,0.0,88,0.00,,OVC002,0.00,VWS V13.00,2013-05-07 08:35:00,
2013-05-07 04:40:00,48.2,44.8,30.07,ESE,114,0.0,0.0,88,0.00,,OVC002,0.00,VWS V13.00,2013-05-07 08:40:00,
2013-05-07 04:45:00,48.0,44.9,30.07,ESE,114,0.0,0.0,89,0.00,,OVC002,0.00,VWS V13.00,2013-05-07 08:45:00,
2013-05-07 04:50:00,48.0,44.9,30.07,ESE,114,0.0,0.0,89,0.00,,OVC002,0.00,VWS V13.00,2013-05-07 08:50:00,
2013-05-07 04:55:00,48.0,44.9,30.07,ESE,114,0.0,0.0,89,0.00,,FEW004,0.00,VWS V13.00,2013-05-07 08:55:00,
2013-05-07 05:00:00,48.0,45.2,30.07,ESE,114,0.0,0.0,90,0.00,,FEW004,0.00,VWS V13.00,2013-05-07 09:00:00,
2013-05-07 05:05:00,48.0,45.2,30.07,ESE,114,0.0,0.0,90,0.00,,FEW004,0.00,VWS V13.00,2013-05-07 09:05:00,
2013-05-07 05:10:00,48.0,45.2,30.07,ESE,114,0.0,0.0,90,0.00,,FEW004,0.00,VWS V13.00,2013-05-07 09:10:00,
2013-05-07 05:15:00,48.0,45.2,30.07,ESE,114,0.0,0.0,90,0.00,,FEW004,0.00,VWS V13.00,2013-05-07 09:15:00,
2013-05-07 05:20:00,48.0,45.5,30.07,ESE,114,0.0,0.0,91,0.00,,FEW004,0.00,VWS V13.00,2013-05-07 09:20:00,
2013-05-07 05:26:00,48.0,45.5,30.07,ESE,114,2.2,2.7,91,0.00,,FEW004,0.00,VWS V13.00,2013-05-07 09:26:00,
2013-05-07 05:31:00,48.0,45.5,30.07,ESE,114,0.0,2.7,91,0.00,,FEW004,0.00,VWS V13.00,2013-05-07 09:31:00,
2013-05-07 05:36:00,47.8,45.3,30.07,ESE,114,0.0,2.7,91,0.00,,BKN002,0.00,VWS V13.00,2013-05-07 09:36:00,
2013-05-07 05:41:00,47.8,45.3,30.07,ESE,114,0.0,0.0,91,0.00,,BKN002,0.00,VWS V13.00,2013-05-07 09:41:00,
2013-05-07 05:46:00,47.7,45.2,30.07,ESE,114,0.0,0.0,91,0.00,,BKN002,0.00,VWS V13.00,2013-05-07 09:46:00,
2013-05-07 05:51:00,47.7,45.2,30.10,ESE,114,0.0,0.0,91,0.00,,BKN002,0.00,VWS V13.00,2013-05-07 09:51:00,
2013-05-07 05:56:00,47.7,45.2,30.10,ESE,114,0.0,0.0,91,0.00,,BKN002,0.00,VWS V13.00,2013-05-07 09:56:00,
2013-05-07 06:01:00,47.8,45.3,30.10,ESE,114,0.0,0.0,91,0.00,,BKN002,0.00,VWS V13.00,2013-05-07 10:01:00,
2013-05-07 06:06:00,48.2,45.4,30.10,ESE,114,0.0,0.0,90,0.00,,CLR,0.00,VWS V13.00,2013-05-07 10:06:00,
2013-05-07 06:11:00,48.4,45.9,30.10,ESE,114,0.0,0.0,91,0.00,,BKN002,0.00,VWS V13.00,2013-05-07 10:11:00,
2013-05-07 06:16:00,48.6,46.1,30.10,ESE,114,0.0,0.0,91,0.00,,BKN002,0.00,VWS V13.00,2013-05-07 10:16:00,
2013-05-07 06:21:00,48.6,46.1,30.10,ESE,114,0.0,0.0,91,0.00,,BKN002,0.00,VWS V13.00,2013-05-07 10:21:00,
2013-05-07 06:26:00,48.7,46.2,30.10,ESE,114,0.0,0.0,91,0.00,,BKN002,0.00,VWS V13.00,2013-05-07 10:26:00,
2013-05-07 06:31:00,48.9,46.1,30.10,ESE,114,0.0,0.0,90,0.00,,BKN002,0.00,VWS V13.00,2013-05-07 10:31:00,
2013-05-07 06:36:00,49.3,46.8,30.10,ESE,114,0.0,0.0,91,0.00,,,0.00,VWS V13.00,2013-05-07 10:36:00,
2013-05-07 06:42:00,49.6,47.1,30.10,ESE,114,0.0,0.0,91,0.00,,,0.00,VWS V13.00,2013-05-07 10:42:00,
2013-05-07 06:47:00,50.2,47.4,30.10,ESE,114,0.0,2.2,90,0.00,,,0.00,VWS V13.00,2013-05-07 10:47:00,
2013-05-07 06:52:00,50.7,47.9,30.10,ESE,114,2.2,2.2,90,0.00,,,0.00,VWS V13.00,2013-05-07 10:52:00,
2013-05-07 06:57:00,51.3,48.4,30.10,ESE,114,0.0,2.7,90,0.00,,,0.00,VWS V13.00,2013-05-07 10:57:00,
2013-05-07 07:02:00,51.6,48.8,30.10,ESE,114,0.0,0.0,90,0.00,,,0.00,VWS V13.00,2013-05-07 11:02:00,
2013-05-07 07:07:00,52.7,49.5,30.10,ESE,114,0.0,0.0,89,0.00,,,0.00,VWS V13.00,2013-05-07 11:07:00,
2013-05-07 07:12:00,53.1,49.6,30.10,ESE,114,0.0,0.0,88,0.00,,,0.00,VWS V13.00,2013-05-07 11:12:00,
2013-05-07 07:17:00,54.0,50.2,30.10,ESE,114,0.0,3.1,87,0.00,,,0.00,VWS V13.00,2013-05-07 11:17:00,
2013-05-07 07:22:00,55.6,50.5,30.10,ESE,114,0.0,2.7,83,0.00,,,0.00,VWS V13.00,2013-05-07 11:22:00,
2013-05-07 07:27:00,56.8,50.7,30.10,ESE,114,0.0,2.7,80,0.00,,,0.00,VWS V13.00,2013-05-07 11:27:00,
2013-05-07 07:32:00,57.0,49.5,30.10,East,93,2.2,4.0,76,0.00,,,0.00,VWS V13.00,2013-05-07 11:32:00,
2013-05-07 07:37:00,58.8,49.8,30.10,NNE,20,3.1,4.0,72,0.00,,,0.00,VWS V13.00,2013-05-07 11:37:00,
2013-05-07 07:42:00,59.4,49.2,30.10,NNE,20,2.7,2.7,69,0.00,,,0.00,VWS V13.00,2013-05-07 11:42:00,
2013-05-07 07:47:00,60.1,47.9,30.10,NNE,20,2.7,3.1,64,0.00,,,0.00,VWS V13.00,2013-05-07 11:47:00,
2013-05-07 07:52:00,61.5,48.4,30.10,NNE,21,2.2,3.1,62,0.00,,,0.00,VWS V13.00,2013-05-07 11:52:00,
2013-05-07 07:57:00,61.7,45.4,30.10,NE,47,2.7,3.1,55,0.00,,,0.00,VWS V13.00,2013-05-07 11:57:00,
2013-05-07 08:02:00,61.2,43.9,30.10,NE,50,3.6,3.6,53,0.00,,,0.00,VWS V13.00,2013-05-07 12:02:00,
2013-05-07 08:07:00,61.7,43.9,30.10,ENE,57,2.7,3.6,52,0.00,,,0.00,VWS V13.00,2013-05-07 12:07:00,
2013-05-07 08:12:00,62.2,43.4,30.10,NE,49,3.1,4.0,50,0.00,,,0.00,VWS V13.00,2013-05-07 12:12:00,
2013-05-07 08:17:00,63.3,42.8,30.10,ENE,62,3.1,4.0,47,0.00,,,0.00,VWS V13.00,2013-05-07 12:17:00,
2013-05-07 08:23:00,63.9,42.7,30.10,NE,38,4.0,4.0,46,0.00,,,0.00,VWS V13.00,2013-05-07 12:23:00,
2013-05-07 08:28:00,62.8,41.7,30.10,NE,52,3.6,4.9,46,0.00,,,0.00,VWS V13.00,2013-05-07 12:28:00,
2013-05-07 08:33:00,62.4,43.0,30.10,ENE,68,2.7,4.9,49,0.00,,,0.00,VWS V13.00,2013-05-07 12:33:00,
2013-05-07 08:38:00,62.1,41.6,30.10,ENE,72,3.6,4.9,47,0.00,,FEW002,0.00,VWS V13.00,2013-05-07 12:38:00,
2013-05-07 08:43:00,62.4,42.5,30.10,ENE,57,4.9,4.9,48,0.00,,FEW002,0.00,VWS V13.00,2013-05-07 12:43:00,
2013-05-07 08:48:00,63.1,43.2,30.10,East,101,3.1,4.9,48,0.00,,FEW002,0.00,VWS V13.00,2013-05-07 12:48:00,
2013-05-07 08:53:00,64.0,43.4,30.10,NE,37,2.7,4.9,47,0.00,,FEW002,0.00,VWS V13.00,2013-05-07 12:53:00,
2013-05-07 08:58:00,63.9,43.3,30.10,NE,50,3.1,4.9,47,0.00,,FEW002,0.00,VWS V13.00,2013-05-07 12:58:00,
2013-05-07 09:03:00,63.7,43.1,30.10,East,94,3.6,4.9,47,0.00,,FEW002,0.00,VWS V13.00,2013-05-07 13:03:00,
2013-05-07 09:08:00,64.4,43.2,30.10,ENE,68,4.0,4.9,46,0.00,,FEW002,0.00,VWS V13.00,2013-05-07 13:08:00,
2013-05-07 09:13:00,64.8,43.5,30.10,ENE,68,3.6,4.9,46,0.00,,FEW002,0.00,VWS V13.00,2013-05-07 13:13:00,
2013-05-07 09:18:00,65.1,43.8,30.10,ENE,67,3.6,4.9,46,0.00,,FEW002,0.00,VWS V13.00,2013-05-07 13:18:00,
2013-05-07 09:23:00,65.5,43.6,30.10,East,95,3.6,5.4,45,0.00,,FEW002,0.00,VWS V13.00,2013-05-07 13:23:00,
2013-05-07 09:28:00,66.6,44.6,30.10,East,98,2.7,5.8,45,0.00,,FEW002,0.00,VWS V13.00,2013-05-07 13:28:00,
2013-05-07 09:33:00,66.9,44.9,30.13,East,101,3.6,5.8,45,0.00,,FEW002,0.00,VWS V13.00,2013-05-07 13:33:00,
2013-05-07 09:38:00,66.6,44.0,30.13,ENE,61,4.0,5.8,44,0.00,,CLR,0.00,VWS V13.00,2013-05-07 13:38:00,
2013-05-07 09:44:00,66.4,43.8,30.13,East,85,3.6,5.4,44,0.00,,CLR,0.00,VWS V13.00,2013-05-07 13:44:00,
2013-05-07 09:49:00,66.6,44.0,30.10,ESE,106,4.0,5.4,44,0.00,,CLR,0.00,VWS V13.00,2013-05-07 13:49:00,
2013-05-07 09:54:00,67.3,44.7,30.10,ENE,72,3.6,6.3,44,0.00,,CLR,0.00,VWS V13.00,2013-05-07 13:54:00,
2013-05-07 09:59:00,68.0,44.7,30.10,SSE,148,4.9,6.3,43,0.00,,CLR,0.00,VWS V13.00,2013-05-07 13:59:00,
2013-05-07 10:04:00,68.4,43.8,30.10,East,86,4.0,7.2,41,0.00,,CLR,0.00,VWS V13.00,2013-05-07 14:04:00,
2013-05-07 10:09:00,67.8,43.3,30.10,East,89,4.0,7.2,41,0.00,,CLR,0.00,VWS V13.00,2013-05-07 14:09:00,
2013-05-07 10:14:00,68.7,44.1,30.10,ENE,67,4.0,7.2,41,0.00,,CLR,0.00,VWS V13.00,2013-05-07 14:14:00,
2013-05-07 10:19:00,68.9,43.6,30.10,ENE,75,4.0,7.2,40,0.00,,CLR,0.00,VWS V13.00,2013-05-07 14:19:00,
2013-05-07 10:24:00,69.4,44.1,30.10,East,100,2.7,6.3,40,0.00,,CLR,0.00,VWS V13.00,2013-05-07 14:24:00,
2013-05-07 10:29:00,69.6,43.6,30.10,ENE,73,4.0,6.3,39,0.00,,CLR,0.00,VWS V13.00,2013-05-07 14:29:00,
2013-05-07 10:34:00,69.8,45.1,30.10,ENE,69,3.1,6.3,41,0.00,,CLR,0.00,VWS V13.00,2013-05-07 14:34:00,
2013-05-07 10:39:00,70.5,45.1,30.10,East,89,4.0,6.3,40,0.00,,CLR,0.00,VWS V13.00,2013-05-07 14:39:00,
2013-05-07 10:44:00,70.9,44.7,30.10,ENE,66,4.0,5.8,39,0.00,,CLR,0.00,VWS V13.00,2013-05-07 14:44:00,
2013-05-07 10:49:00,70.5,44.4,30.10,ENE,70,3.6,5.8,39,0.00,,CLR,0.00,VWS V13.00,2013-05-07 14:49:00,
2013-05-07 10:54:00,70.7,44.5,30.10,ENE,58,4.0,5.8,39,0.00,,CLR,0.00,VWS V13.00,2013-05-07 14:54:00,
2013-05-07 10:59:00,70.9,45.4,30.10,ENE,65,5.8,5.8,40,0.00,,CLR,0.00,VWS V13.00,2013-05-07 14:59:00,
2013-05-07 11:05:00,71.6,46.7,30.10,East,100,3.1,5.8,41,0.00,,CLR,0.00,VWS V13.00,2013-05-07 15:05:00,
2013-05-07 11:10:00,72.0,47.0,30.10,SE,131,5.8,5.8,41,0.00,,CLR,0.00,VWS V13.00,2013-05-07 15:10:00,
2013-05-07 11:15:00,72.7,47.0,30.10,SE,136,5.4,8.3,40,0.00,,CLR,0.00,VWS V13.00,2013-05-07 15:15:00,
2013-05-07 11:20:00,71.8,46.2,30.10,ENE,77,4.0,8.3,40,0.00,,CLR,0.00,VWS V13.00,2013-05-07 15:20:00,
2013-05-07 11:25:00,71.6,46.0,30.10,East,95,2.7,4.0,40,0.00,,CLR,0.00,VWS V13.00,2013-05-07 15:25:00,
2013-05-07 11:30:00,71.8,46.8,30.10,SE,126,3.1,5.8,41,0.00,,CLR,0.00,VWS V13.00,2013-05-07 15:30:00,
2013-05-07 11:35:00,72.3,47.3,30.10,SE,145,5.4,6.3,41,0.00,,CLR,0.00,VWS V13.00,2013-05-07 15:35:00,
2013-05-07 11:40:00,72.0,46.3,30.10,ENE,72,2.7,3.6,40,0.00,,CLR,0.00,VWS V13.00,2013-05-07 15:40:00,
2013-05-07 11:45:00,72.3,47.3,30.10,ESE,114,2.7,5.8,41,0.00,,CLR,0.00,VWS V13.00,2013-05-07 15:45:00,
2013-05-07 11:50:00,72.7,47.7,30.10,ENE,75,2.7,5.8,41,0.00,,CLR,0.00,VWS V13.00,2013-05-07 15:50:00,
2013-05-07 11:55:00,72.5,47.5,30.10,ENE,75,3.1,5.8,41,0.00,,CLR,0.00,VWS V13.00,2013-05-07 15:55:00,
2013-05-07 12:00:00,72.9,47.8,30.10,ENE,71,5.4,5.4,41,0.00,,CLR,0.00,VWS V13.00,2013-05-07 16:00:00,
2013-05-07 12:06:00,71.8,47.5,30.10,ENE,59,2.7,5.4,42,0.00,,CLR,0.00,VWS V13.00,2013-05-07 16:06:00,
2013-05-07 12:11:00,72.5,46.8,30.10,East,91,3.6,8.1,40,0.00,,CLR,0.00,VWS V13.00,2013-05-07 16:11:00,
2013-05-07 12:16:00,72.5,48.1,30.10,ENE,58,3.1,8.1,42,0.00,,CLR,0.00,VWS V13.00,2013-05-07 16:16:00,
2013-05-07 12:21:00,72.3,47.3,30.10,East,99,3.6,5.4,41,0.00,,CLR,0.00,VWS V13.00,2013-05-07 16:21:00,
2013-05-07 12:26:00,72.3,47.3,30.10,East,89,3.1,6.3,41,0.00,,CLR,0.00,VWS V13.00,2013-05-07 16:26:00,
2013-05-07 12:31:00,73.0,48.0,30.10,SSE,156,5.8,6.3,41,0.00,,CLR,0.00,VWS V13.00,2013-05-07 16:31:00,
2013-05-07 12:36:00,72.5,47.5,30.10,ENE,64,4.0,6.3,41,0.00,,SCT060,0.00,VWS V13.00,2013-05-07 16:36:00,
2013-05-07 12:41:00,71.2,47.0,30.10,ENE,63,3.6,4.0,42,0.00,,SCT060,0.00,VWS V13.00,2013-05-07 16:41:00,
2013-05-07 12:46:00,72.7,48.3,30.10,SE,135,4.9,5.8,42,0.00,,SCT060,0.00,VWS V13.00,2013-05-07 16:46:00,
2013-05-07 12:51:00,74.5,49.3,30.10,ESE,110,3.6,10.1,41,0.00,,SCT060,0.00,VWS V13.00,2013-05-07 16:51:00,
2013-05-07 12:56:00,74.8,48.9,30.10,ESE,123,7.6,10.1,40,0.00,,SCT060,0.00,VWS V13.00,2013-05-07 16:56:00,
2013-05-07 13:01:00,74.7,48.8,30.10,ENE,64,5.8,5.8,40,0.00,,SCT060,0.00,VWS V13.00,2013-05-07 17:01:00,
2013-05-07 13:06:00,72.1,47.8,30.10,East,89,2.7,5.8,42,0.00,,SCT060,0.00,VWS V13.00,2013-05-07 17:06:00,
2013-05-07 13:11:00,73.2,48.8,30.10,ESE,102,4.9,5.8,42,0.00,,SCT060,0.00,VWS V13.00,2013-05-07 17:11:00,
2013-05-07 13:16:00,72.5,48.1,30.10,ENE,67,2.2,6.3,42,0.00,,SCT060,0.00,VWS V13.00,2013-05-07 17:16:00,
2013-05-07 13:21:00,72.9,48.5,30.07,SE,144,8.1,8.1,42,0.00,,SCT060,0.00,VWS V13.00,2013-05-07 17:21:00,
2013-05-07 13:26:00,72.5,48.1,30.07,ENE,78,3.1,8.7,42,0.00,,SCT060,0.00,VWS V13.00,2013-05-07 17:26:00,
2013-05-07 13:31:00,73.6,49.7,30.07,ESE,105,3.6,8.7,43,0.00,,SCT060,0.00,VWS V13.00,2013-05-07 17:31:00,
2013-05-07 13:36:00,74.1,48.9,30.07,South,187,4.0,8.7,41,0.00,,FEW060,0.00,VWS V13.00,2013-05-07 17:36:00,
2013-05-07 13:42:00,74.3,49.1,30.07,East,90,3.6,6.3,41,0.00,,FEW060,0.00,VWS V13.00,2013-05-07 17:42:00,
2013-05-07 13:47:00,73.2,48.8,30.07,ESE,109,4.0,6.3,42,0.00,,FEW060,0.00,VWS V13.00,2013-05-07 17:47:00,
2013-05-07 13:52:00,72.7,48.3,30.07,SE,145,7.6,8.7,42,0.00,,FEW060,0.00,VWS V13.00,2013-05-07 17:52:00,
2013-05-07 13:57:00,74.1,49.6,30.07,ESE,108,6.3,8.7,42,0.00,,FEW060,0.00,VWS V13.00,2013-05-07 17:57:00,
2013-05-07 14:02:00,75.2,49.9,30.07,ESE,112,6.3,6.7,41,0.00,,FEW060,0.00,VWS V13.00,2013-05-07 18:02:00,
2013-05-07 14:07:00,75.4,50.1,30.07,ENE,76,4.5,7.6,41,0.00,,FEW060,0.00,VWS V13.00,2013-05-07 18:07:00,
2013-05-07 14:12:00,73.8,49.3,30.07,East,99,4.0,7.6,42,0.00,,FEW060,0.00,VWS V13.00,2013-05-07 18:12:00,
2013-05-07 14:17:00,72.7,48.9,30.07,East,88,2.7,7.6,43,0.00,,CLR,0.00,VWS V13.00,2013-05-07 18:17:00,
2013-05-07 14:22:00,73.2,49.4,30.07,SE,128,5.4,5.4,43,0.00,,CLR,0.00,VWS V13.00,2013-05-07 18:22:00,
2013-05-07 14:27:00,74.7,49.4,30.07,ESE,121,3.1,8.7,41,0.00,,CLR,0.00,VWS V13.00,2013-05-07 18:27:00,
2013-05-07 14:32:00,75.7,50.4,30.07,SE,142,2.2,8.7,41,0.00,,CLR,0.00,VWS V13.00,2013-05-07 18:32:00,
2013-05-07 14:37:00,74.1,48.9,30.07,East,92,3.1,8.7,41,0.00,,OVC060,0.00,VWS V13.00,2013-05-07 18:37:00,
2013-05-07 14:42:00,74.1,48.9,30.07,ESE,114,4.0,5.8,41,0.00,,OVC060,0.00,VWS V13.00,2013-05-07 18:42:00,
2013-05-07 14:47:00,73.2,48.8,30.07,ESE,108,4.9,10.1,42,0.00,,OVC060,0.00,VWS V13.00,2013-05-07 18:47:00,
2013-05-07 14:52:00,73.2,48.8,30.07,East,101,4.0,10.1,42,0.00,,OVC060,0.00,VWS V13.00,2013-05-07 18:52:00,
2013-05-07 14:57:00,74.5,49.3,30.07,ESE,108,3.1,10.1,41,0.00,,OVC060,0.00,VWS V13.00,2013-05-07 18:57:00,
2013-05-07 15:03:00,73.9,48.8,30.07,ENE,75,5.4,8.3,41,0.00,,OVC060,0.00,VWS V13.00,2013-05-07 19:03:00,
2013-05-07 15:08:00,73.0,49.2,30.07,ESE,112,5.4,8.3,43,0.00,,OVC060,0.00,VWS V13.00,2013-05-07 19:08:00,
2013-05-07 15:13:00,72.1,49.0,30.07,East,95,6.3,8.3,44,0.00,,OVC060,0.00,VWS V13.00,2013-05-07 19:13:00,
2013-05-07 15:18:00,72.0,48.3,30.07,East,96,4.0,8.7,43,0.00,,OVC060,0.00,VWS V13.00,2013-05-07 19:18:00,
2013-05-07 15:23:00,72.7,49.5,30.07,ENE,76,4.5,5.4,44,0.00,,OVC060,0.00,VWS V13.00,2013-05-07 19:23:00,
2013-05-07 15:28:00,73.2,50.0,30.07,ENE,77,4.0,6.3,44,0.00,,OVC060,0.00,VWS V13.00,2013-05-07 19:28:00,
2013-05-07 15:33:00,74.7,50.7,30.04,East,91,4.9,6.3,43,0.00,,OVC060,0.00,VWS V13.00,2013-05-07 19:33:00,
2013-05-07 15:38:00,73.9,50.1,30.04,ENE,65,4.5,8.1,43,0.00,,SCT075,0.00,VWS V13.00,2013-05-07 19:38:00,
2013-05-07 15:43:00,74.1,50.2,30.04,East,100,5.4,5.8,43,0.00,,SCT075,0.00,VWS V13.00,2013-05-07 19:43:00,
2013-05-07 15:48:00,74.7,50.1,30.04,SSE,165,3.6,8.1,42,0.00,,SCT075,0.00,VWS V13.00,2013-05-07 19:48:00,
2013-05-07 15:53:00,74.5,49.9,30.04,East,101,4.0,8.3,42,0.00,,SCT075,0.00,VWS V13.00,2013-05-07 19:53:00,
2013-05-07 15:58:00,73.0,49.2,30.04,South,184,5.4,8.3,43,0.00,,SCT075,0.00,VWS V13.00,2013-05-07 19:58:00,
2013-05-07 16:03:00,73.4,48.3,30.04,East,92,3.6,6.3,41,0.00,,SCT075,0.00,VWS V13.00,2013-05-07 20:03:00,
2013-05-07 16:08:00,72.9,48.5,30.04,ESE,113,4.0,9.6,42,0.00,,SCT075,0.00,VWS V13.00,2013-05-07 20:08:00,
2013-05-07 16:13:00,72.1,48.4,30.04,East,97,4.9,9.6,43,0.00,,SCT075,0.00,VWS V13.00,2013-05-07 20:13:00,
2013-05-07 16:19:00,72.0,48.3,30.04,East,80,3.1,9.6,43,0.00,,SCT075,0.00,VWS V13.00,2013-05-07 20:19:00,
2013-05-07 16:24:00,72.3,48.0,30.04,ESE,105,3.6,8.3,42,0.00,,SCT075,0.00,VWS V13.00,2013-05-07 20:24:00,
2013-05-07 16:29:00,72.9,48.5,30.04,ESE,109,5.8,8.3,42,0.00,,SCT075,0.00,VWS V13.00,2013-05-07 20:29:00,
2013-05-07 16:34:00,72.9,48.5,30.04,East,83,3.6,8.7,42,0.00,,SCT075,0.00,VWS V13.00,2013-05-07 20:34:00,
2013-05-07 16:39:00,71.8,46.2,30.04,SE,138,5.8,8.7,40,0.00,,SCT080,0.00,VWS V13.00,2013-05-07 20:39:00,
2013-05-07 16:44:00,71.8,46.8,30.04,ESE,106,4.0,8.1,41,0.00,,SCT080,0.00,VWS V13.00,2013-05-07 20:44:00,
2013-05-07 16:49:00,72.1,47.8,30.04,SE,138,7.2,8.1,42,0.00,,SCT080,0.00,VWS V13.00,2013-05-07 20:49:00,
2013-05-07 16:54:00,72.3,48.6,30.04,ESE,117,5.8,10.1,43,0.00,,SCT080,0.00,VWS V13.00,2013-05-07 20:54:00,
2013-05-07 16:59:00,72.1,48.4,30.04,SSE,159,4.9,10.1,43,0.00,,SCT080,0.00,VWS V13.00,2013-05-07 20:59:00,
2013-05-07 17:04:00,71.2,48.2,30.04,ESE,117,6.3,6.3,44,0.00,,SCT080,0.00,VWS V13.00,2013-05-07 21:04:00,
2013-05-07 17:09:00,71.4,48.4,30.04,SE,124,3.6,6.3,44,0.00,,SCT080,0.00,VWS V13.00,2013-05-07 21:09:00,
2013-05-07 17:14:00,71.1,48.7,30.04,SE,125,5.4,6.3,45,0.00,,SCT080,0.00,VWS V13.00,2013-05-07 21:14:00,
2013-05-07 17:19:00,70.5,48.8,30.04,ENE,77,5.4,6.3,46,0.00,,-RA,0.00,VWS V13.00,2013-05-07 21:19:00,
2013-05-07 17:24:00,70.3,48.6,30.04,ESE,119,3.1,7.6,46,0.00,,-RA,0.00,VWS V13.00,2013-05-07 21:24:00,
2013-05-07 17:30:00,70.5,48.2,30.04,SE,130,4.9,8.7,45,0.00,,-RA,0.00,VWS V13.00,2013-05-07 21:30:00,
2013-05-07 17:35:00,70.3,48.6,30.04,SE,143,8.3,8.7,46,0.00,,-RA,0.00,VWS V13.00,2013-05-07 21:35:00,
2013-05-07 17:40:00,70.2,49.0,30.04,SE,134,4.0,8.7,47,0.00,,SCT070,0.00,VWS V13.00,2013-05-07 21:40:00,
2013-05-07 17:45:00,70.0,48.8,30.04,ESE,115,4.0,8.3,47,0.00,,SCT070,0.00,VWS V13.00,2013-05-07 21:45:00,
2013-05-07 17:50:00,69.8,49.2,30.04,SSE,165,8.1,8.3,48,0.00,,SCT070,0.00,VWS V13.00,2013-05-07 21:50:00,
2013-05-07 17:55:00,69.6,49.6,30.04,SE,130,4.9,8.3,49,0.00,,SCT070,0.00,VWS V13.00,2013-05-07 21:55:00,
2013-05-07 18:00:00,69.6,49.6,30.04,SSE,168,3.1,10.1,49,0.00,,SCT070,0.00,VWS V13.00,2013-05-07 22:00:00,
2013-05-07 18:05:00,69.6,49.6,30.04,SE,144,5.8,8.1,49,0.00,,SCT070,0.00,VWS V13.00,2013-05-07 22:05:00,
2013-05-07 18:10:00,69.4,50.0,30.04,ESE,118,5.8,8.1,50,0.00,,SCT070,0.00,VWS V13.00,2013-05-07 22:10:00,
2013-05-07 18:15:00,69.1,49.7,30.04,SE,127,4.9,10.1,50,0.00,,SCT070,0.00,VWS V13.00,2013-05-07 22:15:00,
2013-05-07 18:20:00,68.9,50.0,30.04,SE,138,5.4,5.4,51,0.00,,SCT070,0.00,VWS V13.00,2013-05-07 22:20:00,
2013-05-07 18:25:00,68.5,49.7,30.04,SE,127,6.3,8.7,51,0.00,,SCT070,0.00,VWS V13.00,2013-05-07 22:25:00,
2013-05-07 18:30:00,68.0,49.7,30.04,East,90,4.0,8.7,52,0.00,,SCT070,0.00,VWS V13.00,2013-05-07 22:30:00,
2013-05-07 18:35:00,67.6,49.9,30.04,SE,136,3.6,9.6,53,0.00,,CLR,0.00,VWS V13.00,2013-05-07 22:35:00,
2013-05-07 18:40:00,67.5,50.2,30.04,ESE,120,2.2,4.0,54,0.00,,CLR,0.00,VWS V13.00,2013-05-07 22:40:00,
2013-05-07 18:45:00,67.3,50.1,30.04,SSE,156,3.6,5.8,54,0.00,,CLR,0.00,VWS V13.00,2013-05-07 22:45:00,
2013-05-07 18:50:00,67.1,50.4,30.04,SSE,167,5.8,6.3,55,0.00,,CLR,0.00,VWS V13.00,2013-05-07 22:50:00,
2013-05-07 18:55:00,66.9,51.2,30.04,SE,129,6.3,6.3,57,0.00,,CLR,0.00,VWS V13.00,2013-05-07 22:55:00,
2013-05-07 19:01:00,66.7,50.6,30.04,East,96,3.1,5.8,56,0.00,,CLR,0.00,VWS V13.00,2013-05-07 23:01:00,
2013-05-07 19:06:00,66.4,50.7,30.07,ESE,110,3.1,6.3,57,0.00,,CLR,0.00,VWS V13.00,2013-05-07 23:06:00,
2013-05-07 19:11:00,66.2,51.0,30.07,ESE,121,2.7,6.3,58,0.00,,CLR,0.00,VWS V13.00,2013-05-07 23:11:00,
2013-05-07 19:16:00,66.0,51.3,30.07,East,100,6.3,6.3,59,0.00,,CLR,0.00,VWS V13.00,2013-05-07 23:16:00,
2013-05-07 19:21:00,65.8,51.1,30.07,SSE,154,5.4,7.2,59,0.00,,CLR,0.00,VWS V13.00,2013-05-07 23:21:00,
2013-05-07 19:26:00,65.5,51.2,30.07,ESE,110,3.6,7.2,60,0.00,,CLR,0.00,VWS V13.00,2013-05-07 23:26:00,
2013-05-07 19:31:00,65.1,51.3,30.07,ESE,113,3.1,7.2,61,0.00,,CLR,0.00,VWS V13.00,2013-05-07 23:31:00,
2013-05-07 19:36:00,65.1,51.8,30.07,ESE,116,4.0,7.6,62,0.00,,CLR,0.00,VWS V13.00,2013-05-07 23:36:00,
2013-05-07 19:41:00,64.9,51.6,30.07,ESE,106,0.0,3.1,62,0.00,,CLR,0.00,VWS V13.00,2013-05-07 23:41:00,
2013-05-07 19:46:00,64.6,51.7,30.07,ESE,108,2.2,3.6,63,0.00,,CLR,0.00,VWS V13.00,2013-05-07 23:46:00,
2013-05-07 19:51:00,64.4,52.0,30.07,SE,125,2.2,4.9,64,0.00,,CLR,0.00,VWS V13.00,2013-05-07 23:51:00,
2013-05-07 19:56:00,64.2,52.6,30.07,ESE,113,3.1,4.9,66,0.00,,CLR,0.00,VWS V13.00,2013-05-07 23:56:00,
2013-05-07 20:01:00,64.2,52.6,30.07,SSE,147,3.6,3.6,66,0.00,,CLR,0.00,VWS V13.00,2013-05-08 00:01:00,
2013-05-07 20:06:00,64.0,52.5,30.07,ESE,111,2.7,6.3,66,0.00,,CLR,0.00,VWS V13.00,2013-05-08 00:06:00,
2013-05-07 20:11:00,63.9,52.7,30.07,SE,125,2.7,6.3,67,0.00,,-RA,0.00,VWS V13.00,2013-05-08 00:11:00,
2013-05-07 20:16:00,63.9,52.7,30.07,SE,125,2.7,6.3,67,0.00,,-RA,0.00,VWS V13.00,2013-05-08 00:16:00,
2013-05-07 20:21:00,63.7,52.5,30.07,ESE,118,3.1,3.1,67,0.00,,-RA,0.00,VWS V13.00,2013-05-08 00:21:00,
2013-05-07 20:26:00,63.5,52.8,30.07,ESE,102,0.0,4.0,68,0.00,,-RA,0.00,VWS V13.00,2013-05-08 00:26:00,
2013-05-07 20:31:00,63.3,53.0,30.07,East,89,0.0,4.0,69,0.00,,-RA,0.00,VWS V13.00,2013-05-08 00:31:00,
2013-05-07 20:36:00,63.3,53.4,30.07,East,101,2.7,4.0,70,0.00,,-RA,0.00,VWS V13.00,2013-05-08 00:36:00,
2013-05-07 20:41:00,63.3,53.4,30.07,ESE,123,0.0,3.6,70,0.00,,-RA,0.00,VWS V13.00,2013-05-08 00:41:00,
2013-05-07 20:46:00,63.3,53.4,30.07,SE,124,3.6,5.4,70,0.00,,-RA,0.00,VWS V13.00,2013-05-08 00:46:00,
2013-05-07 20:52:00,63.1,53.2,30.07,ESE,116,4.0,5.4,70,0.00,,-RA,0.00,VWS V13.00,2013-05-08 00:52:00,
2013-05-07 20:57:00,63.1,53.2,30.07,SE,134,2.7,5.4,70,0.00,,-RA,0.00,VWS V13.00,2013-05-08 00:57:00,
2013-05-07 21:02:00,63.1,53.6,30.07,SE,128,2.7,5.4,71,0.00,,-RA,0.00,VWS V13.00,2013-05-08 01:02:00,
2013-05-07 21:07:00,63.0,53.4,30.07,ESE,111,0.0,5.4,71,0.00,,-RA,0.00,VWS V13.00,2013-05-08 01:07:00,
2013-05-07 21:12:00,62.8,53.6,30.07,NNE,28,4.0,5.4,72,0.00,,-RA,0.00,VWS V13.00,2013-05-08 01:12:00,
2013-05-07 21:17:00,62.8,54.0,30.07,South,172,0.0,5.4,73,0.00,,-RA,0.00,VWS V13.00,2013-05-08 01:17:00,
2013-05-07 21:22:00,62.6,53.8,30.07,NE,47,0.0,3.6,73,0.00,,-RA,0.00,VWS V13.00,2013-05-08 01:22:00,
2013-05-07 21:27:00,62.4,54.4,30.07,East,84,4.0,4.9,75,0.00,,-RA,0.00,VWS V13.00,2013-05-08 01:27:00,
2013-05-07 21:32:00,62.2,54.6,30.07,East,88,2.7,4.9,76,0.00,,-RA,0.00,VWS V13.00,2013-05-08 01:32:00,
2013-05-07 21:37:00,62.2,54.6,30.07,SSE,151,2.7,4.9,76,0.00,,CLR,0.00,VWS V13.00,2013-05-08 01:37:00,
2013-05-07 21:42:00,62.2,54.6,30.07,ESE,121,2.7,8.3,76,0.00,,CLR,0.00,VWS V13.00,2013-05-08 01:42:00,
2013-05-07 21:47:00,62.1,54.8,30.07,SSE,149,3.1,8.3,77,0.00,,CLR,0.00,VWS V13.00,2013-05-08 01:47:00,
2013-05-07 21:52:00,61.9,54.6,30.07,ESE,103,3.6,8.3,77,0.00,,CLR,0.00,VWS V13.00,2013-05-08 01:52:00,
2013-05-07 21:57:00,61.7,54.4,30.07,ENE,73,2.7,8.3,77,0.00,,CLR,0.00,VWS V13.00,2013-05-08 01:57:00,
2013-05-07 22:02:00,61.7,54.4,30.07,East,87,3.1,4.0,77,0.00,,CLR,0.00,VWS V13.00,2013-05-08 02:02:00,
2013-05-07 22:07:00,61.5,54.2,30.07,ESE,118,5.4,8.7,77,0.00,,CLR,0.00,VWS V13.00,2013-05-08 02:07:00,
2013-05-07 22:13:00,61.5,54.6,30.07,SSE,151,4.0,8.7,78,0.00,,CLR,0.00,VWS V13.00,2013-05-08 02:13:00,
2013-05-07 22:18:00,61.5,54.6,30.07,SE,145,5.4,8.7,78,0.00,,CLR,0.00,VWS V13.00,2013-05-08 02:18:00,
2013-05-07 22:23:00,61.3,54.4,30.07,ESE,108,3.6,5.8,78,0.00,,CLR,0.00,VWS V13.00,2013-05-08 02:23:00,
2013-05-07 22:28:00,61.3,54.4,30.07,East,81,3.1,5.8,78,0.00,,CLR,0.00,VWS V13.00,2013-05-08 02:28:00,
2013-05-07 22:33:00,61.3,54.8,30.07,ESE,120,5.4,5.8,79,0.00,,CLR,0.00,VWS V13.00,2013-05-08 02:33:00,
2013-05-07 22:38:00,61.3,55.1,30.07,East,90,2.2,5.8,80,0.00,,SCT095,0.00,VWS V13.00,2013-05-08 02:38:00,
2013-05-07 22:43:00,61.3,55.5,30.07,East,97,3.1,3.6,81,0.00,,SCT095,0.00,VWS V13.00,2013-05-08 02:43:00,
2013-05-07 22:48:00,61.3,55.5,30.07,ENE,77,3.1,5.8,81,0.00,,SCT095,0.00,VWS V13.00,2013-05-08 02:48:00,
2013-05-07 22:53:00,61.3,55.5,30.07,SSE,148,3.6,5.8,81,0.00,,SCT095,0.00,VWS V13.00,2013-05-08 02:53:00,
2013-05-07 22:58:00,61.2,55.3,30.07,East,100,3.1,5.8,81,0.00,,SCT095,0.00,VWS V13.00,2013-05-08 02:58:00,
2013-05-07 23:03:00,61.2,55.3,30.07,SE,125,3.6,5.8,81,0.00,,SCT095,0.00,VWS V13.00,2013-05-08 03:03:00,
2013-05-07 23:08:00,61.0,55.1,30.07,ESE,102,4.0,5.8,81,0.00,,SCT095,0.00,VWS V13.00,2013-05-08 03:08:00,
2013-05-07 23:13:00,61.0,55.1,30.07,SE,142,2.7,6.3,81,0.00,,SCT095,0.00,VWS V13.00,2013-05-08 03:13:00,
2013-05-07 23:18:00,61.0,55.1,30.07,ENE,78,3.6,6.3,81,0.00,,SCT095,0.00,VWS V13.00,2013-05-08 03:18:00,
2013-05-07 23:23:00,60.8,55.3,30.07,East,94,3.6,3.6,82,0.00,,SCT095,0.00,VWS V13.00,2013-05-08 03:23:00,
2013-05-07 23:28:00,60.8,55.3,30.07,East,95,4.0,4.0,82,0.00,,SCT095,0.00,VWS V13.00,2013-05-08 03:28:00,
2013-05-07 23:33:00,61.0,55.5,30.07,East,83,3.1,5.8,82,0.00,,SCT095,0.00,VWS V13.00,2013-05-08 03:33:00,
2013-05-07 23:38:00,61.0,55.5,30.07,East,96,3.6,5.8,82,0.00,,BKN110,0.00,VWS V13.00,2013-05-08 03:38:00,
2013-05-07 23:43:00,60.8,55.3,30.07,ENE,69,3.6,3.6,82,0.00,,BKN110,0.00,VWS V13.00,2013-05-08 03:43:00,
2013-05-07 23:48:00,60.8,55.3,30.07,East,95,4.0,4.9,82,0.00,,BKN110,0.00,VWS V13.00,2013-05-08 03:48:00,
2013-05-07 23:53:00,60.8,55.3,30.07,East,96,2.7,4.9,82,0.00,,BKN110,0.00,VWS V13.00,2013-05-08 03:53:00,
2013-05-07 23:58:00,60.8,55.3,30.07,East,93,3.1,4.9,82,0.00,,BKN110,0.00,VWS V13.00,2013-05-08 03:58:00,